Terug naar catalogus

POPACS 2

ActiefWetenschapPO
NORAD 39269·PAYLOAD·🇺🇸 United States

Gelanceerd Sep 29, 2013 vanaf Vandenberg Space Force Base

Loading…

Volgende Passages (komende 24 uur)

TLE

VersSource: Space-Track

Epoch: Sep 14, 2026, 09:37 UTC

1 39269U 13055E   26257.40098080  .00010240  00000-0  17031-3 0  9996
2 39269  80.9914  41.8459 0405632 266.7735  88.7011 14.93867772676524

Volg POPACS 2 in realtime met AllMySat

Download on the App Store